P/2005 JQ5 ( Catalina )

Japanese version
Home page
Total 6,336 html files since Dec. 4, 1995
Updated on May 8, 2006

---------------------------------------------------------------------

* Profile

Discovery Date May 6, 2005
Magnitude 16.7 mag
Discoverer Catalina Sky Survey

* Pictures

* Orbital Elements

Epoch 2005 July 9.0 TT = JDT 2453560.5
T 2005 July 28.03404 TT                                 MPC
q   0.8255914            (2000.0)            P               Q
n   0.22284759     Peri.  222.68363     +0.74614612     +0.65842139
a   2.6944125      Node    95.86136     -0.58095167     +0.71631126
e   0.6935913      Incl.    5.69581     -0.32520934     +0.23103993
P   4.42

* Finding Charts

* Magnitudes Graph

        H = 17.5  G = 0.15                [   ,-73]  (             - 2005 May  16)
        m1 = 16.0 + 5 log d + 23.0 log r  [-73, 85]  (2005 May  16 - 2005 Oct. 21 )
        H = 17.5  G = 0.15                [ 85,   ]  (2005 Oct. 21 -             )

        * Green curve is:  H = 17.5  G = 0.15

---------------------------------------------------------------------

The orbital elements are published on M.P.E.C. 2005-M24.
The charts are made with StellaNavigator Ver.2.0 for Windows (AstroArts / ASCII).
The magnitudes graphs are made with Comet for Windows.

---------------------------------------------------------------------

Copyright(C) 1995-2008 Seiichi Yoshida (comet@aerith.net). All rights reserved.